sat.trackr.live / text

‹ back to catalog

STARLINK-31211

NORAD 59031 · 2024-038J

PAYLOAD ACTIVE UNKNOWN

§ Identity

Operator
Country
US
Launch date
2024-02-25
Launch site
AFETR
Launch vehicle
Mass (kg)
RCS (m²)

Purposes: comms

External: N2YO · Heavens-Above · Gunter

§ Orbital elements

Epoch: 2026-05-24T19:33:09.642816Z

Period
94.27 min
Inclination
43.0016°
Eccentricity
0.0001415
Mean motion
15.27578682 rev/d
Perigee alt
482.1 km
Apogee alt
484.0 km
Semi-major
6,861.2 km
B*
7.3943e-5
RAAN
316.8350°
Arg perigee
274.2793°
Mean anomaly
85.7896°
Rev number
12,629

§ Raw data

STARLINK-312111 59031U 24038J   26144.81469494  .00001773  00000+0  73943-4 0  99942 59031  43.0016 316.8350 0001415 274.2793  85.7896 15.27578682126299

JSON: /api/v1/satellites/59031 · /tle

For live sub-satellite position, see the globe view (requires WebGL).

§ Visibility from observer

Set your observer location to see the next 7 days of passes ≥ 10°. The values pass through the URL so the page stays shareable.

No JS? Fill the form by hand. The geolocation button needs JavaScript.